Home   Weather   Neuruppin   Past weeks

Flag for Germany Past Weather in Neuruppin, Brandenburg, Germany — Yesterday and Last 2 Weeks

Now
64 °F

Scattered clouds.


Feels Like: 64 °F
Forecast: 52 / 67 °F
Wind: 13 mph from Southwest

Location: Berlin-Tegel

Current Time: Aug 19, 2017 at 1:41:42 pm

Latest Report: Aug 19, 2017 at 12:50 pm


Visibility: N/A

Pressure: 30.01 "Hg

Humidity: 60%

Dew Point: 50 °F

Location of NeuruppinLocation

Past Weather in Neuruppin — Graph

°F

Neuruppin Temperature Yesterday

Maximum temperature yesterday: 79 °F (at 3:50 pm)
Minimum temperature yesterday: 64 °F (at 2:20 am)
Average temperature yesterday: 70 °F

High & Low Weather Summary for the Past Weeks

 TemperatureHumidityPressure
High82 °F (Aug 15, 3:50 pm)100% (Aug 6, 12:20 am)30.24 "Hg (Aug 6, 12:20 am)
Low52 °F (Aug 7, 4:50 am)30% (Aug 9, 6:50 pm)29.77 "Hg (Aug 18, 7:50 pm)
Average67 °F70%30.02 "Hg
* Reported Aug 4 12:20 pm — Aug 19 12:20 pm, Neuruppin. Weather by CustomWeather, © 2017

Note: Actual official high and low records may vary slightly from our data, if they occured in-between our weather recording intervals... More about our weather records

Advertising

Neuruppin Weather History for the Previous 24 Hours

Scroll right to see more
 ConditionsComfort  
Time TempWeatherWind HumidityBarometerVisibility
12:20 pm
Sat, Aug 19
64 °FScattered clouds.13 mph60%30.01 "HgN/A
11:50 am63 °FScattered clouds.13 mph68%30.01 "HgN/A
11:20 am63 °FBroken clouds.14 mph68%30.01 "HgN/A
10:50 am63 °FPartly sunny.14 mph73%30.01 "HgN/A
10:20 am63 °FPartly sunny.15 mph73%30.01 "HgN/A
9:50 am61 °FBroken clouds.15 mph77%29.98 "HgN/A
9:20 am61 °FBroken clouds.10 mph83%29.98 "HgN/A
8:50 am61 °FBroken clouds.13 mph77%29.98 "HgN/A
8:20 am61 °FPartly sunny.13 mph83%29.95 "HgN/A
7:50 am59 °FScattered clouds.10 mph88%29.95 "HgN/A
7:20 am61 °FPartly sunny.10 mph83%29.95 "HgN/A
6:50 am61 °FScattered clouds.9 mph88%29.92 "HgN/A
6:20 am61 °FBroken clouds.10 mph88%29.92 "HgN/A
5:50 am59 °FPartly cloudy.7 mph94%29.89 "HgN/A
5:20 am57 °FPartly cloudy.7 mph94%29.89 "HgN/A
4:50 am59 °FPartly cloudy.7 mph94%29.89 "HgN/A
4:20 am61 °FPassing clouds.13 mph88%29.89 "HgN/A
3:50 am61 °FPartly cloudy.9 mph94%29.89 "HgN/A
3:20 am61 °FPartly cloudy.7 mph94%29.86 "HgN/A
2:50 am61 °FPartly cloudy.7 mph94%29.86 "HgN/A
2:20 am61 °FPassing clouds.7 mph94%29.86 "HgN/A
1:50 am63 °FPassing clouds.9 mph94%29.86 "HgN/A
1:20 am63 °FPassing clouds.8 mph94%29.86 "HgN/A
12:50 am63 °FLight rain. Passing clouds.8 mph94%29.83 "HgN/A
12:20 am64 °FLight rain. Mostly cloudy.13 mph88%29.83 "HgN/A
11:50 pm
Fri, Aug 18
66 °FLight rain. Mostly cloudy.12 mph88%29.83 "HgN/A
11:20 pm66 °FLight rain. Mostly cloudy.10 mph94%29.83 "HgN/A
10:50 pm66 °FPassing clouds.7 mph94%29.80 "HgN/A
10:20 pm66 °FPartly cloudy.6 mph94%29.80 "HgN/A
9:50 pm68 °FLight rain. Partly cloudy.5 mph94%29.80 "HgN/A
9:20 pm68 °FLight rain. Passing clouds.3 mph94%29.80 "HgN/A
8:50 pm68 °FSprinkles. Partly cloudy.5 mph88%29.83 "Hg5 mi
8:20 pm70 °FStrong thunderstorms. Broken clouds.3 mph94%29.80 "Hg3 mi
7:53 pm72 °FThunderstorms. Broken clouds.6 mph83%29.80 "HgN/A
7:50 pm72 °FThundershowers. Broken clouds.6 mph83%29.77 "HgN/A
7:20 pm73 °FSprinkles. Partly sunny.3 mph74%29.80 "HgN/A
6:50 pm75 °FBroken clouds.2 mph69%29.80 "HgN/A
6:20 pm73 °FPartly sunny.2 mph74%29.80 "HgN/A
5:50 pm73 °FPartly sunny.5 mph74%29.83 "HgN/A
5:20 pm73 °FPartly sunny.7 mph69%29.83 "HgN/A
4:50 pm73 °FThundershowers. Broken clouds.14 mph69%29.86 "HgN/A
4:20 pm79 °FThundershowers. Broken clouds.10 mph58%29.86 "HgN/A
3:50 pm79 °FBroken clouds.8 mph61%29.86 "HgN/A
3:20 pm77 °FBroken clouds.8 mph65%29.86 "HgN/A
2:50 pm77 °FSunny.8 mph65%29.89 "Hg10 mi
2:20 pm75 °FBroken clouds.9 mph65%29.89 "HgN/A
1:50 pm77 °FBroken clouds.12 mph61%29.92 "HgN/A
1:20 pm77 °FBroken clouds.12 mph65%29.92 "HgN/A
Weather by CustomWeather, © 2017

See weather overviewHow to use our weather pages